New York, NY

7:34 PM EDT on April 27, 2017 (GMT -0400)
La Guardia

Weather History for KLGA - December, 2013

Change the Weather History Date:

Tuesday, December 3, 2013

  Actual Average Record
Temperature  
Mean Temperature 46 °F 42 °F  
Max Temperature 53 °F 48 °F 69 °F (1998)
Min Temperature 38 °F 36 °F 11 °F (1976)
Degree Days  
Heating Degree Days 19 23  
Month to date heating degree days 63 67  
Since 1 July heating degree days 845 842  
Cooling Degree Days 0 0  
Month to date cooling degree days 0 0  
Year to date cooling degree days 1402 1214  
Moisture  
Dew Point 34 °F    
Average Humidity 66    
Maximum Humidity 86    
Minimum Humidity 46    
Precipitation  
Precipitation 0.00 in 0.13 in 1.48 in (1967)
Month to date precipitation 0.00 0.38  
Year to date precipitation 33.83 41.55  
Snow  
Snow 0.00 in 0.00 in 0.60 in (1957)
Month to date snowfall 0.0 0.2  
Since 1 July snowfall 0.2 0.5  
Snow Depth 0.00 in    
Sea Level Pressure  
Sea Level Pressure 29.93 in    
Wind  
Wind Speed 4 mph (North)    
Max Wind Speed 10 mph    
Max Gust Speed 12 mph    
Visibility 8 miles    
Events      
T = Trace of Precipitation, MM = Missing Value Source: NWS Daily Summary

Daily Weather History Graph

Daily Weather History Graph

Search for Another Location

Airport or City:

Trip Planner

Search our weather history database for the weather conditions in past years. The results will help you decide how hot, cold, wet, or windy it might be!

Date:

Astronomy

Dec. 03, 2013 Rise Set
Actual Time 7:02 AM EST 4:28 PM EST
Civil Twilight 6:32 AM EST 4:58 PM EST
Nautical Twilight 5:57 AM EST 5:32 PM EST
Astronomical Twilight 5:24 AM EST 6:05 PM EST
Moon 7:28 AM EST (12/3) 5:29 PM EST (12/3)
Length of Visible Light 10h 26m
Length of Day
9h 25m
New Moon, 1% of the Moon is Illuminated
Dec 3
New Moon
Dec 9
First Quarter
Dec 17
Full
Dec 25
Last Quarter
Jan 1
New

Hourly Weather History & Observations

Time (EST) Temp. Windchill Dew Point Humidity Pressure Visibility Wind Dir Wind Speed Gust Speed Precip Events Conditions
12:51 AM 41.0 °F 37.1 °F 37.0 °F 86% 29.89 in 6.0 mi North 5.8 mph - N/A   Mostly Cloudy
1:51 AM 39.9 °F 37.8 °F 36.0 °F 86% 29.90 in 6.0 mi NE 3.5 mph - N/A   Mostly Cloudy
2:51 AM 39.9 °F 36.7 °F 36.0 °F 86% 29.91 in 6.0 mi ENE 4.6 mph - N/A   Mostly Cloudy
3:42 AM 39.2 °F 35.0 °F 35.6 °F 87% 29.91 in 6.0 mi NE 5.8 mph - N/A   Overcast
3:51 AM 39.0 °F 34.8 °F 35.1 °F 86% 29.91 in 7.0 mi NE 5.8 mph - N/A   Overcast
4:51 AM 37.9 °F 34.4 °F 34.0 °F 86% 29.90 in 7.0 mi ENE 4.6 mph - N/A   Mostly Cloudy
5:51 AM 37.9 °F 35.5 °F 34.0 °F 86% 29.90 in 7.0 mi NE 3.5 mph - N/A   Scattered Clouds
6:51 AM 39.0 °F - 34.0 °F 82% 29.91 in 6.0 mi Calm Calm - N/A   Haze
7:51 AM 41.0 °F 38.0 °F 34.0 °F 76% 29.92 in 7.0 mi NW 4.6 mph - N/A   Mostly Cloudy
8:51 AM 42.1 °F 38.4 °F 35.1 °F 76% 29.93 in 7.0 mi WNW 5.8 mph - N/A   Mostly Cloudy
9:51 AM 42.1 °F 36.6 °F 34.0 °F 73% 29.94 in 8.0 mi NW 9.2 mph - N/A   Mostly Cloudy
10:51 AM 45.0 °F 42.6 °F 33.1 °F 63% 29.93 in 8.0 mi NW 4.6 mph - N/A   Mostly Cloudy
11:51 AM 48.0 °F - 34.0 °F 58% 29.92 in 8.0 mi WNW 3.5 mph - N/A   Mostly Cloudy
12:51 PM 51.1 °F - 33.1 °F 50% 29.89 in 8.0 mi Calm Calm - N/A   Scattered Clouds
1:51 PM 53.1 °F - 33.1 °F 47% 29.88 in 9.0 mi Calm Calm - N/A   Partly Cloudy
2:51 PM 52.0 °F - 33.1 °F 49% 29.88 in 9.0 mi Calm Calm - N/A   Scattered Clouds
3:51 PM 53.1 °F - 33.1 °F 47% 29.91 in 9.0 mi West 8.1 mph - N/A   Scattered Clouds
4:51 PM 52.0 °F - 32.0 °F 47% 29.92 in 10.0 mi West 5.8 mph - N/A   Scattered Clouds
5:51 PM 50.0 °F - 34.0 °F 54% 29.94 in 10.0 mi NW 5.8 mph - N/A   Partly Cloudy
6:51 PM 48.9 °F - 33.1 °F 54% 29.96 in 10.0 mi Calm Calm - N/A   Clear
7:51 PM 46.0 °F 42.5 °F 35.1 °F 66% 29.98 in 8.0 mi North 6.9 mph - N/A   Clear
8:51 PM 45.0 °F 43.5 °F 34.0 °F 65% 29.98 in 8.0 mi NE 3.5 mph - N/A   Clear
9:51 PM 44.1 °F 41.5 °F 34.0 °F 68% 29.98 in 8.0 mi NE 4.6 mph - N/A   Clear
10:51 PM 43.0 °F 40.3 °F 34.0 °F 71% 30.00 in 8.0 mi North 4.6 mph - N/A   Clear
11:51 PM 42.1 °F 39.2 °F 34.0 °F 73% 30.01 in 8.0 mi North 4.6 mph - N/A   Partly Cloudy